Location: Yoder Observing Site
(32.2942°N, 83.9813°W)
Time: 01:15:11
(UTC-04:00)

ISS - Visible Passes

Search period start: 22 July 2018 00:00
Search period end: 01 August 2018 00:00
Orbit: 402 x 408 km, 51.6° (Epoch: 22 July)

Date Brightness Start Highest point End Pass type
(mag) Time Alt. Az. Time Alt. Az. Time Alt. Az.
22 Jul -0.8 03:58:15 10° N 04:00:29 17° NE 04:02:44 10° ENE visible
22 Jul -3.4 05:34:00 10° WNW 05:37:05 38° SW 05:40:10 10° SSE visible
22 Jul -0.5 22:12:13 10° WNW 22:13:55 13° NNW 22:15:38 10° N visible
23 Jul -1.1 21:18:56 10° W 21:21:36 23° NW 21:24:17 10° NNE visible
25 Jul -0.4 21:13:02 10° NW 21:14:04 11° NNW 21:15:06 10° NNW visible
